Showing default

ZHUHAI-1 03C, 44537

Orbit data source: Space-Track

ZHUHAI-1 03C, 44537 is a payload satellite owned by Zhuhai Orbita (CN) in SSO that was launched on Thu, 19 Sep 2019 UTC via a CHANG ZHENG 11 launch vehicle from the Jiuquan Satellite Launch Center, China (JSC). Payload-class satellites include a variety of spacecraft equipped with specific instruments for various scientific and technological missions. These include communications satellites like Starlink; space stations such as the ISS; scientific satellites like the Hubble; Earth observation satellites from companies like Planet Labs, Umbra, and HawkEye 360; GPS; miniature CubeSats for education and research; and military/defense satellites.

Loading next visibility...
Identifier
44537, 2019-060D
Orbit
SSO
Last TLE update
6 hours ago
Origin
Manufacturer
Harbin
Mission
Operational Commercial Imaging
Bus & Motor
OHS-1, Unknown motor
Mass
69 kg wet, 69 kg dry
Launch date (UTC)
2019-09-19 (6 years ago)
Launch vehicle
CHANG ZHENG 11
Launch site
Jiuquan Satellite Launch Center, China (JSC)
Object type
Payload
Rocket body
Debris
Shape & HBR
Box, Unknown HBR
Radar Cross Section
0.280 m², Medium (>0.1 m² and < 1m²)

Expand to show TLE details & history

TLE from 6 hours ago
0 ZHUHAI-1 03C
1 44537U 19060D   25182.18181413  .00021565  00000-0  49009-3 0  9998
2 44537  97.5462 326.0492 0019924 113.8508 246.4829 15.42821284322431
Epoch: 2025-07-01T04:21Z
TLE epoch observation values (Epoch: 2025-07-01T04:21:48.74Z)
Latitude
-0.00014°
Longitude
-18.88481°
Altitude
446.347 km
Speed
7.641 km/s
True Right ascension
21h 44m 11s
True Declination
0° 00' 00"
Sunlit
Object was in full shadow at epoch
Visualization orbit readout
Latitude
-46.1758°
Longitude
-10.7355°
Altitude
468.383 km
Speed
7.623 km/s
Apparent Right ascension
05h 50m 33s
Apparent Declination
-87° 45' 54"
Sunlit
Object is in full shadow
Visualization observer readout
Local Sidereal Time
22:01:43
Azimuth
177.37° S
Elevation
-40.908°
Doppler factor
1
Orbital elements
Apogee altitude
448.303 km
Perigee altitude
421.155 km
Semi-major axis
6,812.866 km
Eccentricity
0.00199
Inclination
97.5462°
RAAN
326.0492°
Arg. of periapsis
113.8508°
True anomaly
Unknown
Mean anomaly
246.4829°
Eccentric anomaly
Unknown
Mean motion
3.85965 °/min
Orbital period
93.27 mins
BSTAR
0.00049009
Loading maneuver chart data...
Loading SW <> Apogee altitude chart data...
Loading historical data...
Loading historical data...
Loading historical data...
Loading historical data...
Loading historical data...
Loading historical data...
Loading historical data...

ZHUHAI-1 03C Visibility forecast

Observer location: undefined°, undefined°

Span
Click to sort rows by Start time (UTC) header in descending order
Start Az.
Max El. time (UTC)
Max El. Az.
Max El.
End time (UTC)
End Az.
4 mins2025-07-01 22:04:17.139Z54.736° ENE2025-07-01 22:05:17.139Z88.154° E28.609°2025-07-01 22:08:17.139Z163.794° S
5 mins2025-07-02 10:04:17.139Z199.456° SSW2025-07-02 10:06:17.139Z250.74° W30.229°2025-07-02 10:09:17.139Z328.313° NNW
|